Hourly Data Report for September 29, 2015

IQALUIT CLIMATE
NUNAVUT

63°44'50.000" N
68°32'40.000" W
33.50 m
2402592
71321
XFB

Download Data

Hourly Data (September 2015)
Hourly Data Report for September 29, 2015
TIME
LST
Temp Definition
°C
Dew Point Definition
°C
Rel Hum Definition
%
Precip. Amount Definition
mm

Wind Dir Definition
10's deg

Wind Spd Definition
km/h
Visibility Definition
km
Stn Press Definition
kPa
Hmdx Definition


Wind Chill Definition


Weather Definition


00:00 1.2 -0.5 89 0.0 14 13   99.38     LegendNANA
01:00 1.5 -0.7 85 0.0 13 20   99.38     LegendNANA
02:00 1.2 -0.6 88 0.0 12 18   99.41     LegendNANA
03:00 0.9 -0.4 91 0.0 13 16   99.45     LegendNANA
04:00 0.6 -0.3 94 0.0 13 15   99.46     LegendNANA
05:00 0.4 -0.6 93 0.0 14 23   99.49     LegendNANA
06:00 0.2 -0.7 94 0.0 14 24   99.56     LegendNANA
07:00 0.2 -0.8 93 0.0 14 21   99.60     LegendNANA
08:00 0.2 -1.0 91 0.0 14 22   99.66     LegendNANA
09:00 0.6 -1.1 89 0.0 14 21   99.70     LegendNANA
10:00 0.6 -1.2 88 0.0 14 20   99.75     LegendNANA
11:00 1.0 -1.0 86 0.0 15 15   99.76     LegendNANA
12:00 1.5 -0.8 84 0.0 16 9   99.77     LegendNANA
13:00 1.4 -1.2 83 0.0 15 5   99.81     LegendNANA
14:00 1.4 -1.3 82 0.0 18 6   99.84     LegendNANA
15:00 1.3 -1.4 82 0.0 23 4   99.89     LegendNANA
16:00 1.2 -1.5 82 0.0 25 4   99.95     LegendNANA
17:00 0.9 -1.7 83 0.0 26 2   100.00     LegendNANA
18:00 0.7 -1.6 85 0.0 33 4   100.04     LegendNANA
19:00 0.5 -1.9 84 0.0 32 5   100.10     LegendNANA
20:00 0.4 -2.0 84 0.0 26 2   100.15     LegendNANA
21:00 0.1 -1.6 88 0.0 20 3   100.20     LegendNANA
22:00 -0.8 -1.6 94 0.0   0   100.23     LegendNANA
23:00 -1.5 -2.2 95 0.0 1 5   100.26   -3 LegendNANA

Notes on Data Quality.

Legend

  • E = Estimated
  • M = Missing
  • NA = Not Available*
  • [empty] = Indicates an unobserved value
Date modified: